| time (UTC) | temp C | wind direction | speed KPH | gust KPH | rain 1hr cm | rain 24hr cm | rain mn cm | humidity % | barometer mb |
| 20260505031547 | 17 | 242 | 4.8 | 11.3 | 0.00 | 0.41 | 0.41 | 74 | 1001.0 |
| 20260505030057 | 17 | 241 | 6.4 | 16.1 | 0.00 | 0.41 | 0.41 | 75 | 1001.1 |
| 20260505024547 | 17 | 200 | 11.3 | 19.3 | 0.03 | 0.41 | 0.41 | 75 | 1000.7 |
| 20260505023046 | 17 | 229 | 12.9 | 22.5 | 0.03 | 0.41 | 0.41 | 75 | 1000.3 |
| 20260505021553 | 17 | 204 | 9.7 | 19.3 | 0.03 | 0.41 | 0.41 | 76 | 1000.0 |
| 20260505020053 | 17 | 225 | 14.5 | 27.4 | 0.03 | 0.41 | 0.41 | 74 | 1000.2 |
| 20260505014544 | 18 | 234 | 11.3 | 27.4 | 0.00 | 0.38 | 0.38 | 72 | 1000.1 |
| 20260505013046 | 18 | 186 | 11.3 | 27.4 | 0.00 | 0.38 | 0.38 | 74 | 999.7 |
| 20260505011544 | 17 | 196 | 8.0 | 19.3 | 0.00 | 0.38 | 0.38 | 77 | 999.6 |
| 20260505010104 | 17 | 201 | 4.8 | 11.3 | 0.00 | 0.38 | 0.38 | 78 | 998.8 |
| 20260505004545 | 17 | 215 | 6.4 | 19.3 | 0.15 | 0.38 | 0.38 | 79 | 999.0 |
| 20260505003048 | 17 | 194 | 11.3 | 20.9 | 0.36 | 0.38 | 0.38 | 80 | 999.2 |
| 20260505001542 | 16 | 213 | 6.4 | 16.1 | 0.38 | 0.38 | 0.38 | 84 | 998.6 |
| 20260505000051 | 16 | 196 | 4.8 | 17.7 | 0.38 | 0.38 | 0.38 | 84 | 998.1 |
| 20260504234539 | 18 | 246 | 11.3 | 29.0 | 0.23 | 0.23 | 0.23 | 77 | 999.8 |
| 20260504233045 | 21 | 315 | 6.4 | 32.2 | 0.03 | 0.03 | 0.03 | 61 | 999.2 |
| 20260504231537 | 23 | 185 | 9.7 | 20.9 | 0.00 | 0.00 | 0.00 | 54 | 998.1 |
| 20260504230046 | 23 | 240 | 12.9 | 30.6 | 0.00 | 0.00 | 0.00 | 52 | 998.1 |
| 20260504224545 | 23 | 217 | 20.9 | 45.1 | 0.00 | 0.00 | 0.00 | 50 | 998.2 |
| 20260504223035 | 26 | 205 | 14.5 | 32.2 | 0.00 | 0.00 | 0.00 | 42 | 998.1 |
| 20260504221535 | 26 | 228 | 12.9 | 29.0 | 0.00 | 0.00 | 0.00 | 39 | 998.1 |
| 20260504220034 | 26 | 241 | 11.3 | 30.6 | 0.00 | 0.00 | 0.00 | 39 | 998.5 |
| 20260504214541 | 26 | 192 | 14.5 | 35.4 | 0.00 | 0.00 | 0.00 | 39 | 998.5 |
| 20260504213034 | 26 | 219 | 14.5 | 35.4 | 0.00 | 0.00 | 0.00 | 39 | 998.7 |
| 20260504211531 | 26 | 248 | 11.3 | 30.6 | 0.00 | 0.00 | 0.00 | 38 | 998.7 |
| 20260504210030 | 26 | 209 | 11.3 | 27.4 | 0.00 | 0.00 | 0.00 | 40 | 999.1 |
| 20260504204529 | 26 | 217 | 14.5 | 33.8 | 0.00 | 0.00 | 0.00 | 38 | 999.0 |
| 20260504203031 | 26 | 211 | 16.1 | 29.0 | 0.00 | 0.00 | 0.00 | 38 | 999.3 |
| 20260504201527 | 26 | 234 | 12.9 | 35.4 | 0.00 | 0.00 | 0.00 | 36 | 999.6 |
| 20260504200030 | 26 | 253 | 17.7 | 29.0 | 0.00 | 0.00 | 0.00 | 34 | 999.8 |
| 20260504194526 | 26 | 213 | 11.3 | 33.8 | 0.00 | 0.00 | 0.00 | 35 | 999.8 |
| 20260504193025 | 26 | 237 | 20.9 | 35.4 | 0.00 | 0.00 | 0.00 | 36 | 1000.1 |
| 20260504191523 | 25 | 209 | 19.3 | 41.8 | 0.00 | 0.00 | 0.00 | 34 | 1000.4 |
| 20260504190023 | 26 | 276 | 11.3 | 33.8 | 0.00 | 0.00 | 0.00 | 34 | 1000.3 |
| 20260504184528 | 25 | 256 | 12.9 | 29.0 | 0.00 | 0.00 | 0.00 | 37 | 1000.4 |
| 20260504183025 | 25 | 211 | 11.3 | 35.4 | 0.00 | 0.00 | 0.00 | 39 | 1000.7 |
| 20260504181517 | 24 | 267 | 14.5 | 25.7 | 0.00 | 0.00 | 0.00 | 37 | 1000.8 |
| 20260504180017 | 24 | 200 | 11.3 | 25.7 | 0.00 | 0.00 | 0.00 | 40 | 1001.0 |
| 20260504174511 | 24 | 194 | 14.5 | 29.0 | 0.00 | 0.00 | 0.00 | 40 | 1001.2 |
| 20260504173009 | 23 | 218 | 8.0 | 32.2 | 0.00 | 0.00 | 0.00 | 45 | 1001.3 |
| 20260504171507 | 23 | 222 | 9.7 | 33.8 | 0.00 | 0.00 | 0.00 | 46 | 1001.6 |
| 20260504170106 | 22 | 223 | 11.3 | 25.7 | 0.00 | 0.00 | 0.00 | 45 | 1001.7 |
| 20260504160105 | 22 | 200 | 9.7 | 32.2 | 0.00 | 0.00 | 0.00 | 43 | 1002.7 |
| 20260504081600 | 12 | 186 | 4.8 | 8.0 | 0.00 | 0.00 | 0.00 | 73 | 1004.9 |
| 20260504044531 | 15 | 207 | 8.0 | 17.7 | 0.00 | 0.00 | 0.00 | 65 | 1006.6 |
| 20260504043044 | 15 | 189 | 6.4 | 17.7 | 0.00 | 0.00 | 0.00 | 64 | 1006.6 |
| 20260504041535 | 15 | 190 | 6.4 | 16.1 | 0.00 | 0.00 | 0.00 | 63 | 1006.6 |
| 20260504040031 | 15 | 192 | 8.0 | 16.1 | 0.00 | 0.00 | 0.00 | 62 | 1006.7 |
| 20260504034530 | 16 | 202 | 6.4 | 16.1 | 0.00 | 0.00 | 0.00 | 62 | 1007.0 |
| 20260504033030 | 16 | 186 | 6.4 | 17.7 | 0.00 | 0.00 | 0.00 | 61 | 1007.2 |